DELTA 1 DEB, 7143

Orbit data source: Space-Track

DELTA 1 DEB, 7143 is space debris in SSO originally from a launch on Tue, 06 Nov 1973 UTC launched from the Air Force Western Test Range (AFWTR). Debris objects in space refer to the collection of defunct objects orbiting the Earth. Examples of debris include non-operational satellites, rocket bodies, and fragments generated from explosions, collisions, or faulty payload assembly.

Loading next visibility...
Identifier
7143, 1973-086DH
Orbit
SSO
Country
Flag of USUS
Related business
Manufacturer
Unknown
Mission
Spacecraft
Bus & Motor
Unknown
Mass
Unknown
Launch date (UTC)
1973-11-06 (52 years ago)
Launch vehicle
Unknown
Launch site
Air Force Western Test Range (AFWTR)
Object type
Payload
Rocket body
Debris
Shape & HBR
Unknown shape, 0.1 m
Radar Cross Section
Small (<0.1 m²)

Expand to show TLE details & history
Last TLE update: 17 hours ago

TLE from 17 hours ago
0 DELTA 1 DEB
1 07143U 73086DH  25304.06435552 -.00000024  00000-0  14928-3 0  9997
2 07143 101.7926 335.3051 0048167  96.7884 322.4222 12.33003875339106
Epoch: 2025-10-31T01:32Z
TLE epoch observation values (Epoch: 2025-10-31T01:32:40.316Z)
Latitude
57.0175°
Longitude
-106.14782°
Altitude
1,515.602 km
Speed
7.126 km/s
True Right ascension
21h 06m 32s
True Declination
56° 52' 31"
Sunlit
Object was in daylight at epoch
Visualization orbit readout
Latitude
Unknown
Longitude
Unknown
Altitude
Unknown
Speed
Unknown
Apparent Right ascension
Unknown
Apparent Declination
Unknown
Sunlit
N/A
Visualization observer readout
Local Sidereal Time
14:16:08
Azimuth
Unknown
Elevation
Unknown
Doppler factor
Unknown
Orbital elements
Apogee altitude
1,572.083 km
Perigee altitude
1,495.862 km
Semi-major axis
7,912.109 km
Eccentricity
0.00482
Inclination
101.7926°
RAAN
335.3051°
Arg. of periapsis
96.7884°
True anomaly
322.08399°
Mean anomaly
322.4222°
Eccentric anomaly
322.25325°
Mean motion
3.08393 °/min
Orbital period
116.73 mins
BSTAR
0.00014928
Loading maneuver chart data...
Computing Atmospheric mass density...
Loading historical data...
Loading historical data...
Loading historical data...
Loading historical data...
Loading historical data...
Loading historical data...
Loading historical data...

Documentation

Showing up to 5 results
|